Location: Cerroniocc
(13.7547°S, 72.0222°W)
Time: 21:33:20
(UTC+00:00)

SL-24 R/B - Pass Details

Date: 05 July 2020
Orbit: 504 x 1004 km, 97.4° (Epoch: 10 August)

Event Time Altitude Azimuth Distance (km) Brightness Sun altitude
Rises 23:38:16 0° 8° (N) 3,099 7.8 -15.5°
Reaches altitude 10° 23:40:39 10° 7° (N) 2,106 6.9 -16.1°
Maximum altitude 23:45:12 74° 282° (WNW) 640 4.2 -17.1°
Drops below altitude 10° 23:49:13 10° 196° (SSW) 1,870 6.5 -18.0°
Sets 23:51:15 0° 194° (SSW) 2,722 7.3 -18.5°
